Rensselaer, IN

11:14 PM CDT on July 23, 2016 (GMT -0500)
Jasper County

Weather History for KRZL - October, 2012

Change the Weather History Date:

Tuesday, October 9, 2012

  Actual Average (KVPZ) Record (KVPZ)
Temperature  
Mean Temperature 50 °F 55 °F  
Max Temperature 64 °F 65 °F 86 °F (2010)
Min Temperature 37 °F 44 °F 31 °F (2000)
Degree Days  
Heating Degree Days 14 11  
Month to date heating degree days 89  
Since 1 July heating degree days 219  
Cooling Degree Days 0 1  
Month to date cooling degree days 9  
Year to date cooling degree days 711  
Moisture  
Dew Point 36 °F    
Average Humidity 57    
Maximum Humidity 93    
Minimum Humidity 34    
Precipitation  
Precipitation 0.00 in 0.11 in 0.47 in (2009)
Month to date precipitation 0.89  
Year to date precipitation 29.64  
Sea Level Pressure  
Sea Level Pressure 29.97 in    
Wind  
Wind Speed 9 mph (SSW)    
Max Wind Speed 21 mph    
Max Gust Speed 28 mph    
Visibility 10 miles    
Events Rain    
T = Trace of Precipitation, MM = Missing Value Source: NWS Daily Summary

Daily Weather History Graph

Daily Weather History Graph

Search for Another Location

Airport or City:

Trip Planner

Search our weather history database for the weather conditions in past years. The results will help you decide how hot, cold, wet, or windy it might be!

Date:

Astronomy

Oct. 09, 2012 Rise Set
Actual Time 6:54 AM CDT 6:16 PM CDT
Civil Twilight 6:26 AM CDT 6:44 PM CDT
Nautical Twilight 5:54 AM CDT 7:16 PM CDT
Astronomical Twilight 5:22 AM CDT 7:47 PM CDT
Moon 12:27 AM CDT (10/9) 2:46 PM CDT (10/9)
Length of Visible Light 12h 17m
Length of Day
11h 22m
Last Quarter, 36% of the Moon is Illuminated
Oct 9
Last Quarter
Oct 15
New
Oct 21
First Quarter
Oct 29
Full
Nov 6
Last Quarter

Hourly Weather History & Observations

Time (CDT) Temp. Windchill Dew Point Humidity Pressure Visibility Wind Dir Wind Speed Gust Speed Precip Events Conditions
12:15 AM 41.0 °F 38.0 °F 32.0 °F 70% 30.08 in 10.0 mi SSE 4.6 mph - N/A   Clear
12:55 AM 39.2 °F 35.9 °F 32.0 °F 75% 30.07 in 10.0 mi SSE 4.6 mph - N/A   Clear
1:15 AM 41.0 °F 38.0 °F 32.0 °F 70% 30.07 in 10.0 mi SSE 4.6 mph - N/A   Clear
1:55 AM 39.2 °F 35.9 °F 32.0 °F 75% 30.07 in 10.0 mi SSE 4.6 mph - N/A   Clear
2:55 AM 41.0 °F 38.0 °F 32.0 °F 70% 30.06 in 10.0 mi SSE 4.6 mph - N/A   Clear
3:15 AM 41.0 °F 37.1 °F 32.0 °F 70% 30.06 in 10.0 mi SSE 5.8 mph - N/A   Clear
3:35 AM 41.0 °F 37.1 °F 32.0 °F 70% 30.06 in 10.0 mi South 5.8 mph - N/A   Clear
3:55 AM 39.2 °F 35.0 °F 32.0 °F 75% 30.05 in 10.0 mi SSE 5.8 mph - N/A   Clear
4:15 AM 39.2 °F 35.0 °F 32.0 °F 75% 30.05 in 10.0 mi SSE 5.8 mph - N/A   Clear
4:35 AM 41.0 °F 35.8 °F 33.8 °F 76% 30.05 in 10.0 mi South 8.1 mph - N/A   Clear
4:55 AM 41.0 °F 35.8 °F 32.0 °F 70% 30.05 in 10.0 mi South 8.1 mph - N/A   Clear
5:15 AM 41.0 °F 36.4 °F 33.8 °F 76% 30.05 in 10.0 mi South 6.9 mph - N/A   Clear
5:35 AM 41.0 °F 37.1 °F 33.8 °F 76% 30.05 in 10.0 mi South 5.8 mph - N/A   Clear
5:55 AM 39.2 °F 34.2 °F 33.8 °F 81% 30.05 in 10.0 mi South 6.9 mph - N/A   Clear
6:15 AM 39.2 °F 34.2 °F 33.8 °F 81% 30.06 in 10.0 mi South 6.9 mph - N/A   Clear
6:55 AM 37.4 °F 32.1 °F 33.8 °F 87% 30.06 in 10.0 mi South 6.9 mph - N/A   Clear
7:15 AM 39.2 °F 34.2 °F 35.6 °F 87% 30.06 in 10.0 mi South 6.9 mph - N/A   Clear
7:35 AM 41.0 °F 36.4 °F 35.6 °F 81% 30.06 in 10.0 mi South 6.9 mph - N/A   Clear
7:55 AM 42.8 °F 37.5 °F 35.6 °F 76% 30.05 in 10.0 mi South 9.2 mph - N/A   Clear
8:15 AM 44.6 °F 39.7 °F 37.4 °F 76% 30.05 in 10.0 mi South 9.2 mph - N/A   Clear
8:35 AM 48.2 °F - 37.4 °F 66% 30.05 in 10.0 mi South 9.2 mph - N/A   Clear
8:55 AM 50.0 °F - 37.4 °F 62% 30.05 in 10.0 mi SSW 11.5 mph 17.3 mph N/A   Clear
9:15 AM 51.8 °F - 37.4 °F 58% 30.04 in 10.0 mi SSW 11.5 mph 20.7 mph N/A   Clear
9:35 AM 53.6 °F - 37.4 °F 54% 30.04 in 10.0 mi SSW 12.7 mph 21.9 mph N/A   Clear
9:55 AM 55.4 °F - 35.6 °F 47% 30.03 in 10.0 mi SSW 17.3 mph 21.9 mph N/A   Clear
10:15 AM 55.4 °F - 35.6 °F 47% 30.03 in 10.0 mi SSW 20.7 mph 26.5 mph N/A   Clear
10:35 AM 59.0 °F - 37.4 °F 45% 30.03 in 10.0 mi SSW 16.1 mph 21.9 mph N/A   Clear
10:55 AM 59.0 °F - 37.4 °F 45% 30.02 in 10.0 mi SSW 15.0 mph 23.0 mph N/A   Clear
11:15 AM 59.0 °F - 35.6 °F 42% 30.01 in 10.0 mi SSW 17.3 mph 26.5 mph N/A   Clear
11:35 AM 60.8 °F - 35.6 °F 39% 30.00 in 10.0 mi SSW 17.3 mph 24.2 mph N/A   Clear
11:55 AM 60.8 °F - 35.6 °F 39% 30.00 in 10.0 mi South 13.8 mph 25.3 mph N/A   Clear
12:15 PM 62.6 °F - 35.6 °F 37% 29.98 in 10.0 mi SSW 17.3 mph 26.5 mph N/A   Clear
12:35 PM 62.6 °F - 37.4 °F 39% 29.97 in 10.0 mi SSW 16.1 mph 26.5 mph N/A   Clear
12:55 PM 62.6 °F - 35.6 °F 37% 29.96 in 10.0 mi South 19.6 mph 25.3 mph N/A   Clear
1:15 PM 62.6 °F - 37.4 °F 39% 29.95 in 10.0 mi SSW 16.1 mph 25.3 mph N/A   Clear
1:35 PM 64.4 °F - 35.6 °F 34% 29.94 in 10.0 mi SSW 16.1 mph 26.5 mph N/A   Clear
1:55 PM 64.4 °F - 35.6 °F 34% 29.93 in 10.0 mi SSW 13.8 mph 27.6 mph N/A   Clear
2:15 PM 64.4 °F - 35.6 °F 34% 29.91 in 10.0 mi South 13.8 mph 27.6 mph N/A   Clear
2:35 PM 62.6 °F - 33.8 °F 34% 29.91 in 10.0 mi SSW 16.1 mph 24.2 mph N/A   Clear
2:55 PM 62.6 °F - 35.6 °F 37% 29.91 in 10.0 mi SSW 17.3 mph 25.3 mph N/A   Clear
3:15 PM 62.6 °F - 35.6 °F 37% 29.91 in 10.0 mi SSW 15.0 mph 25.3 mph N/A   Clear
3:35 PM 62.6 °F - 35.6 °F 37% 29.91 in 10.0 mi SSW 15.0 mph 24.2 mph N/A   Clear
3:55 PM 62.6 °F - 35.6 °F 37% 29.90 in 10.0 mi SSW 19.6 mph 25.3 mph N/A   Clear
4:15 PM 62.6 °F - 35.6 °F 37% 29.90 in 10.0 mi SSW 18.4 mph 25.3 mph N/A   Clear
4:35 PM 62.6 °F - 35.6 °F 37% 29.90 in 10.0 mi SSW 16.1 mph 23.0 mph N/A   Clear
4:55 PM 60.8 °F - 35.6 °F 39% 29.90 in 10.0 mi SSW 15.0 mph 24.2 mph N/A   Clear
5:15 PM 60.8 °F - 35.6 °F 39% 29.89 in 10.0 mi SSW 16.1 mph 21.9 mph N/A   Clear
5:35 PM 60.8 °F - 37.4 °F 42% 29.89 in 10.0 mi SSW 12.7 mph 21.9 mph N/A   Clear
5:55 PM 59.0 °F - 37.4 °F 45% 29.89 in 10.0 mi SSW 9.2 mph 18.4 mph N/A   Clear
6:15 PM 59.0 °F - 37.4 °F 45% 29.89 in 10.0 mi SSW 9.2 mph 17.3 mph N/A   Clear
6:35 PM 57.2 °F - 37.4 °F 48% 29.89 in 10.0 mi SSW 9.2 mph - N/A   Clear
6:55 PM 55.4 °F - 39.2 °F 54% 29.89 in 10.0 mi South 9.2 mph - N/A   Clear
7:15 PM 55.4 °F - 39.2 °F 54% 29.89 in 10.0 mi South 8.1 mph - N/A   Clear
7:35 PM 55.4 °F - 39.2 °F 54% 29.89 in 10.0 mi South 8.1 mph - N/A   Clear
7:55 PM 53.6 °F - 39.2 °F 58% 29.89 in 10.0 mi South 9.2 mph - N/A   Clear
8:15 PM 53.6 °F - 39.2 °F 58% 29.88 in 10.0 mi South 9.2 mph - N/A   Clear
8:35 PM 55.4 °F - 39.2 °F 54% 29.87 in 10.0 mi South 10.4 mph - N/A   Clear
8:55 PM 55.4 °F - 39.2 °F 54% 29.87 in 10.0 mi South 11.5 mph - N/A   Clear
9:15 PM 55.4 °F - 39.2 °F 54% 29.87 in 10.0 mi SSW 12.7 mph 19.6 mph N/A   Scattered Clouds
9:35 PM 55.4 °F - 41.0 °F 58% 29.87 in 10.0 mi South 11.5 mph 16.1 mph N/A   Mostly Cloudy
9:55 PM 55.4 °F - 41.0 °F 58% 29.87 in 10.0 mi SSW 10.4 mph - N/A   Mostly Cloudy
10:15 PM 55.4 °F - 41.0 °F 58% 29.87 in 10.0 mi SSW 10.4 mph - N/A   Overcast
10:35 PM 53.6 °F - 41.0 °F 62% 29.90 in 10.0 mi WNW 17.3 mph 25.3 mph N/A   Overcast
10:55 PM 48.2 °F - 41.0 °F 76% 29.92 in 10.0 mi WNW 12.7 mph 23.0 mph N/A Rain Light Rain
11:15 PM 46.4 °F 41.5 °F 42.8 °F 87% 29.92 in 10.0 mi NW 10.4 mph 16.1 mph N/A Rain Light Rain
11:35 PM 46.4 °F 42.4 °F 42.8 °F 87% 29.92 in 10.0 mi NW 8.1 mph - N/A Rain Light Rain
11:55 PM 44.6 °F 41.4 °F 42.8 °F 93% 29.94 in 10.0 mi West 5.8 mph - N/A   Overcast